1486468800.15,63191,11.31,72728.3,4.73,-25.45,-22.97,0,*79
1486468801.4,63192,11.31,72730.0,4.73,-26.17,-23.85,0,*7C
1486468802.63,63193,11.31,72728.0,4.73,-26.77,-24.35,0,*77
1486468803.86,63194,11.31,72724.8,4.73,-26.81,-24.31,0,*7D
1486468805.08,63195,11.31,72730.3,4.77,-26.07,-23.65,0,*70
1486468806.32,63196,11.31,72726.3,4.77,-25.75,-23.43,0,*71
1486468807.52,63197,11.31,72730.0,4.77,-25.39,-22.93,0,*74
1486468808.75,63198,11.31,72730.8,4.79,-25.65,-23.13,0,*75
1486468809.97,63199,11.31,72724.3,4.81,-25.81,-23.39,0,*71
1486468811.19,63200,11.31,72730.3,4.85,-25.91,-23.53,0,*7B
1486468812.42,63201,11.31,72726.5,4.85,-25.65,-23.19,0,*7F
1486468813.69,63202,11.31,72726.3,4.87,-25.81,-23.53,0,*7A
1486468814.97,63203,11.38,72730.8,4.87,-25.75,-23.33,0,*76
1486468816.18,63204,11.31,72728.8,4.91,-25.23,-22.83,0,*7F
1486468817.44,63205,11.38,72730.0,4.91,-25.81,-23.43,0,*7B
1486468818.69,63206,11.31,72730.3,4.91,-25.65,-23.23,0,*74
1486468819.94,63207,11.38,72730.0,4.91,-25.55,-23.13,0,*75
1486468821.17,63208,11.31,72730.0,4.95,-25.45,-23.09,0,*74
1486468822.42,63209,11.38,72730.3,4.97,-25.65,-23.33,0,*7C
1486468823.7,63210,11.31,72728.5,4.97,-26.29,-23.85,0,*72
1486468824.94,63211,11.38,72730.8,4.99,-26.29,-23.95,0,*7C
1486468826.2,63212,11.38,72728.3,4.99,-26.13,-23.65,0,*79
1486468827.42,63213,11.31,72726.3,4.99,-25.97,-23.59,0,*78
1486468828.65,63214,11.31,72726.0,5.01,-25.35,-22.83,0,*71
1486468829.89,63215,11.31,72730.3,5.01,-25.19,-22.77,0,*75
1486468831.09,63216,11.38,72730.0,5.03,-25.23,-22.83,0,*76
1486468832.34,63217,11.31,72728.0,5.07,-25.97,-23.53,0,*70
1486468833.59,63218,11.31,72730.3,5.07,-26.13,-23.69,0,*79
1486468834.83,63219,11.38,72728.5,5.09,-26.61,-24.15,0,*7F
1486468836.05,63220,11.31,72728.3,5.07,-27.45,-24.97,0,*76
1486468837.28,63221,11.31,72724.8,5.11,-26.93,-24.31,0,*76
1486468838.56,63222,11.38,72728.0,5.09,-25.97,-23.49,0,*73
1486468839.78,63223,11.38,72730.0,5.11,-25.29,-22.87,0,*7D
1486468840.97,63224,11.38,72728.0,5.11,-25.13,-22.67,0,*7D
1486468842.17,63225,11.31,72724.0,5.15,-25.19,-22.63,0,*76
1486468843.44,63226,11.31,72728.3,5.17,-25.03,-22.73,0,*7D
1486468844.69,63227,11.31,72730.3,5.17,-24.83,-22.37,0,*75
1486468845.95,63228,11.38,72730.5,5.19,-25.55,-23.23,0,*7A
1486468847.21,63229,11.38,72730.0,5.19,-26.33,-23.99,0,*79
1486468848.46,63230,11.31,72728.8,5.21,-25.49,-23.03,0,*77
1486468849.68,63231,11.31,72726.8,5.25,-24.93,-22.31,0,*74
1486468850.88,63232,11.31,72726.8,5.23,-25.13,-22.83,0,*71
1486468852.08,63233,11.31,72730.3,5.25,-26.07,-23.75,0,*78
1486468853.29,63234,11.38,72728.3,5.25,-27.07,-24.61,0,*7C
1486468854.51,63235,11.31,72730.0,5.25,-26.07,-23.49,0,*71
1486468855.71,63236,11.31,72728.3,5.25,-25.19,-22.63,0,*77
1486468856.97,63237,11.31,72726.5,5.31,-26.03,-23.53,0,*79
1486468858.23,63238,11.31,72726.5,5.31,-25.81,-23.29,0,*72
1486468859.48,63239,11.31,72730.5,5.31,-25.29,-22.93,0,*71
1486468860.71,63240,11.31,72730.5,5.35,-25.13,-22.67,0,*79
1486468862.0,63241,11.31,72730.0,5.35,-26.33,-23.85,0,*74
1486468863.24,63242,11.38,72730.0,5.35,-26.45,-23.95,0,*77
1486468864.52,63243,11.38,72730.3,5.35,-26.13,-23.53,0,*7F
1486468865.76,63244,11.38,72730.5,5.35,-25.23,-22.73,0,*7B
1486468867.02,63245,11.38,72730.5,5.41,-24.83,-22.17,0,*70
1486468868.24,63246,11.38,72728.0,5.41,-24.87,-22.41,0,*74
1486468869.44,63247,11.31,72728.3,5.41,-24.77,-22.27,0,*7A
1486468870.67,63248,11.38,72730.5,5.43,-24.47,-21.93,0,*78
1486468871.87,63249,11.38,72730.3,5.49,-24.57,-22.07,0,*7C
1486468873.06,63250,11.38,72730.3,5.49,-24.61,-22.07,0,*71
1486468874.32,63251,11.38,72728.8,5.49,-24.71,-22.21,0,*75
1486468875.5,63252,11.38,72730.3,5.53,-24.97,-22.41,0,*73
1486468876.74,63253,11.31,72726.8,5.57,-25.23,-22.77,0,*7D
1486468877.96,63254,11.38,72728.8,5.57,-25.09,-22.67,0,*73
1486468879.16,63255,11.38,72728.3,5.59,-26.07,-23.59,0,*7D
1486468880.43,63256,11.38,72730.5,5.57,-25.75,-23.29,0,*71
1486468881.65,63257,11.38,72728.0,5.59,-25.29,-22.83,0,*76
1486468882.92,63258,11.38,72728.0,5.59,-24.71,-22.17,0,*78
1486468884.14,63259,11.38,72730.3,5.59,-24.87,-22.37,0,*72
1486468885.35,63260,11.38,72730.8,5.63,-24.87,-22.41,0,*70
1486468886.58,63261,11.38,72728.8,5.63,-24.71,-22.27,0,*78
1486468887.83,63262,11.38,72732.3,5.67,-24.67,-22.21,0,*7E
1486468889.03,63263,11.38,72730.3,5.67,-24.77,-22.37,0,*79
1486468890.31,63264,11.38,72728.0,5.69,-24.71,-22.17,0,*74
1486468891.56,63265,11.38,72728.0,5.69,-24.61,-22.17,0,*74
1486468892.83,63266,11.38,72728.3,5.73,-24.67,-22.17,0,*7A
1486468894.05,63267,11.38,72730.0,5.75,-25.23,-22.77,0,*7A
1486468895.3,63268,11.38,72728.0,5.75,-25.75,-23.23,0,*76
1486468896.57,63269,11.38,72730.0,5.77,-25.81,-23.33,0,*7F
1486468897.82,63270,11.31,72726.5,5.77,-24.83,-22.37,0,*71
1486468899.07,63271,11.38,72728.3,5.79,-24.41,-21.87,0,*78
1486468900.28,63272,11.31,72724.8,5.79,-24.47,-21.93,0,*78
1486468901.55,63273,11.38,72728.5,5.81,-24.67,-22.31,0,*77
1486468902.76,63274,11.38,72728.5,5.81,-24.93,-22.37,0,*7D
1486468904.01,63275,11.38,72730.3,5.83,-24.87,-22.31,0,*7D
1486468905.24,63276,11.38,72728.0,5.85,-25.03,-22.41,0,*72
1486468906.52,63277,11.38,72728.8,5.85,-25.03,-22.47,0,*75
1486468907.77,63278,11.38,72728.3,5.85,-24.51,-21.87,0,*73
1486468909.0,63279,11.38,72730.8,5.85,-24.51,-22.11,0,*7E
1486468910.24,63280,11.38,72726.8,5.91,-24.25,-21.77,0,*7D
1486468911.51,63281,11.38,72728.5,5.93,-24.41,-22.03,0,*7C
1486468912.78,63282,11.38,72726.8,5.93,-25.29,-22.73,0,*77
1486468913.99,63283,11.31,72724.5,5.95,-25.23,-22.83,0,*75
1486468915.23,63284,11.38,72728.8,5.95,-25.55,-23.09,0,*70
1486468916.46,63285,11.38,72728.8,5.95,-25.45,-23.09,0,*70
1486468917.7,63286,11.38,72728.8,5.95,-25.71,-23.13,0,*7F
1486468918.9,63287,11.31,72724.5,5.95,-25.23,-22.67,0,*7B
1486468920.14,63288,11.31,72726.0,5.95,-24.61,-22.17,0,*74
1486468921.39,63289,11.38,72728.5,5.99,-24.71,-22.27,0,*7B
1486468922.61,63290,11.38,72726.0,5.97,-25.19,-22.67,0,*76
1486468923.87,63291,11.38,72732.0,5.97,-25.45,-22.93,0,*75
1486468925.11,63292,11.38,72730.5,5.99,-25.71,-23.09,0,*7D
1486468926.34,63293,11.38,72730.3,6.01,-25.61,-23.13,0,*74
1486468927.54,63294,11.38,72730.3,6.03,-24.97,-22.41,0,*7F
1486468928.8,63295,11.38,72728.3,6.03,-24.67,-22.17,0,*72
1486468930.03,63296,11.38,72728.8,6.01,-24.97,-22.57,0,*78
1486468931.23,63297,11.38,72728.0,6.03,-25.35,-22.83,0,*7B
1486468932.49,63298,11.31,72724.3,6.03,-24.67,-22.21,0,*7A
1486468933.75,63299,11.38,72730.5,6.07,-24.87,-22.31,0,*70
1486468934.96,63300,11.38,72726.5,6.07,-24.61,-22.11,0,*7B
1486468936.2,63301,11.38,72732.3,6.07,-24.51,-21.97,0,*74
1486468937.44,63302,11.38,72730.3,6.09,-25.19,-22.63,0,*7C
1486468938.66,63303,11.38,72728.3,6.13,-24.97,-22.67,0,*75
1486468939.95,63304,11.38,72728.8,6.09,-24.83,-22.31,0,*7F
1486468941.2,63305,11.38,72730.0,6.13,-24.61,-22.21,0,*78
1486468942.43,63306,11.38,72730.0,6.13,-24.61,-22.07,0,*7F
1486468943.68,63307,11.38,72726.0,6.13,-24.67,-22.07,0,*78
1486468944.89,63308,11.38,72730.8,6.15,-24.35,-22.03,0,*72
1486468946.15,63309,11.38,72730.3,6.17,-24.47,-21.97,0,*7A
1486468947.38,63310,11.38,72728.8,6.17,-24.57,-22.07,0,*79
1486468948.65,63311,11.38,72730.3,6.19,-24.21,-21.67,0,*72
1486468949.91,63312,11.38,72728.8,6.21,-24.41,-22.17,0,*78
1486468951.13,63313,11.38,72730.3,6.21,-24.87,-22.41,0,*70
1486468952.4,63314,11.38,72728.0,6.23,-24.35,-21.87,0,*75
1486468953.66,63315,11.38,72728.5,6.23,-24.67,-22.27,0,*7A
1486468954.89,63316,11.38,72728.5,6.25,-25.03,-22.57,0,*7B
1486468956.13,63317,11.38,72728.5,6.25,-23.99,-21.63,0,*7B
1486468957.35,63318,11.38,72730.0,6.25,-23.69,-21.13,0,*7C
1486468958.57,63319,11.38,72730.0,6.29,-23.43,-20.89,0,*7B
1486468959.83,63320,11.38,72732.5,6.29,-23.65,-21.23,0,*74
1486468961.08,63321,11.38,72724.5,6.35,-23.65,-21.43,0,*7E
1486468962.33,63322,11.38,72730.0,6.35,-23.65,-21.13,0,*78
1486468963.59,63323,11.38,72730.0,6.39,-23.65,-21.13,0,*75
1486468964.87,63324,11.38,72730.8,6.39,-23.65,-21.23,0,*71
1486468966.08,63325,11.38,72726.8,6.41,-24.77,-22.11,0,*79
1486468967.34,63326,11.38,72730.8,6.43,-24.71,-22.27,0,*7B
1486468968.59,63327,11.38,72728.0,6.41,-23.69,-21.23,0,*71
1486468969.84,63328,11.38,72728.8,6.45,-23.23,-20.83,0,*7F
1486468971.07,63329,11.38,72730.5,6.47,-23.39,-20.89,0,*7D
1486468972.33,63330,11.38,72730.0,6.47,-23.75,-21.33,0,*7D
1486468973.55,63331,11.38,72728.5,6.47,-23.89,-21.43,0,*78
1486468974.8,63332,11.38,72728.5,6.49,-24.11,-21.57,0,*76
1486468976.0,63333,11.38,72730.5,6.49,-23.79,-21.43,0,*7B
1486468977.26,63334,11.38,72728.8,6.51,-24.35,-21.87,0,*72
1486468978.55,63335,11.38,72730.3,6.51,-24.87,-22.47,0,*75
1486468979.77,63336,11.38,72732.3,6.53,-25.09,-22.63,0,*75
1486468981.0,63337,11.38,72732.3,6.53,-23.79,-21.39,0,*79
1486468982.29,63338,11.38,72730.0,6.53,-24.25,-21.83,0,*79
1486468983.57,63339,11.38,72728.5,6.57,-23.85,-21.53,0,*7C
1486468984.79,63340,11.38,72728.8,6.59,-24.11,-21.73,0,*74
1486468986.05,63341,11.38,72728.8,6.61,-24.25,-21.73,0,*79
1486468987.3,63342,11.38,72730.3,6.61,-23.95,-21.43,0,*75
1486468988.56,63343,11.38,72728.5,6.61,-23.43,-20.99,0,*79
1486468989.81,63344,11.38,72728.5,6.65,-23.39,-21.03,0,*75
1486468991.04,63345,11.38,72730.8,6.65,-23.79,-21.39,0,*79
1486468992.29,63346,11.38,72732.3,6.65,-23.49,-21.09,0,*7A
1486468993.53,63347,11.38,72728.0,6.69,-23.99,-21.73,0,*77
1486468994.79,63348,11.38,72730.3,6.71,-23.33,-20.83,0,*7F
1486468995.99,63349,11.38,72726.3,6.71,-23.13,-20.63,0,*72
1486468997.22,63350,11.38,72730.3,6.71,-23.39,-20.99,0,*77
1486468998.48,63351,11.38,72730.0,6.73,-23.29,-20.89,0,*74
1486468999.73,63352,11.38,72726.8,6.73,-23.23,-20.93,0,*76
1486469000.96,63353,11.38,72728.5,6.73,-23.09,-20.73,0,*71
1486469002.17,63354,11.38,72726.5,6.79,-23.09,-20.59,0,*74
1486469003.38,63355,11.38,72728.8,6.81,-23.39,-21.09,0,*75
1486469004.63,63356,11.38,72728.3,6.83,-23.95,-21.57,0,*79
1486469005.84,63357,11.38,72730.8,6.83,-24.35,-21.93,0,*7D
1486469007.07,63358,11.38,72730.8,6.83,-23.39,-20.99,0,*72
1486469008.29,63359,11.38,72732.0,6.83,-23.13,-20.83,0,*70
1486469009.53,63360,11.38,72726.8,6.85,-22.97,-20.49,0,*77
1486469010.79,63361,11.38,72728.3,6.87,-23.19,-20.89,0,*7F
1486469012.07,63362,11.38,72728.8,6.87,-23.19,-20.79,0,*73
1486469013.33,63363,11.38,72728.0,6.91,-22.87,-20.49,0,*70
1486469014.56,63364,11.38,72728.8,6.91,-23.09,-20.69,0,*72
1486469015.79,63365,11.38,72728.5,6.93,-22.87,-20.53,0,*7F
1486469017.02,63366,11.38,72730.0,6.95,-22.83,-20.43,0,*7F
1486469018.28,63367,11.38,72728.3,6.95,-22.77,-20.43,0,*75
1486469019.53,63368,11.38,72730.5,6.95,-22.83,-20.49,0,*7B
1486469020.76,63369,11.38,72728.5,6.99,-22.63,-20.25,0,*72
1486469021.99,63370,11.38,72730.5,6.99,-22.63,-20.39,0,*77
1486469023.25,63371,11.38,72728.8,7.03,-22.87,-20.49,0,*79
1486469024.5,63372,11.38,72730.5,7.05,-22.73,-20.49,0,*77
1486469025.76,63373,11.38,72728.3,7.07,-22.83,-20.49,0,*7B
1486469026.99,63374,11.38,72728.3,7.09,-23.33,-20.93,0,*7F
1486469028.22,63375,11.38,72728.0,7.09,-22.77,-20.43,0,*72
1486469029.43,63376,11.38,72728.0,7.09,-22.87,-20.59,0,*75
1486469030.66,63377,11.38,72726.8,7.13,-22.73,-20.39,0,*72
1486469031.93,63378,11.38,72728.5,7.11,-23.29,-21.03,0,*79
1486469033.18,63379,11.38,72732.3,7.13,-23.49,-21.03,0,*7C
1486469034.47,63380,11.38,72730.5,7.15,-23.33,-20.83,0,*78
1486469035.7,63381,11.38,72728.3,7.15,-24.77,-22.27,0,*72
1486469036.98,63382,11.38,72730.5,7.15,-23.99,-21.67,0,*71
1486469038.24,63383,11.38,72726.8,7.15,-24.21,-21.93,0,*7F
1486469039.51,63384,11.38,72730.8,7.15,-23.23,-20.89,0,*77
1486469040.77,63385,11.38,72730.3,7.15,-22.93,-20.53,0,*7B
1486469042.0,63386,11.38,72728.5,7.17,-22.83,-20.49,0,*70
1486469043.23,63387,11.38,72730.5,7.17,-22.67,-20.35,0,*70
1486469044.43,63388,11.38,72732.0,7.21,-22.41,-20.09,0,*71
1486469045.63,63389,11.38,72732.0,7.25,-22.41,-20.09,0,*74
1486469046.86,63390,11.38,72726.0,7.25,-22.53,-20.19,0,*7E
1486469048.12,63391,11.38,72726.5,7.27,-23.03,-20.73,0,*75
1486469049.4,63392,11.38,72732.3,7.27,-23.85,-21.53,0,*7B
1486469050.63,63393,11.38,72726.8,7.27,-22.93,-20.59,0,*77
1486469051.86,63394,11.38,72730.0,7.29,-22.67,-20.35,0,*7F
1486469053.09,63395,11.38,72732.0,7.31,-22.57,-20.29,0,*79
1486469054.33,63396,11.38,72724.3,7.31,-23.29,-21.09,0,*71
1486469055.58,63397,11.38,72728.8,7.31,-23.69,-21.39,0,*77
1486469056.81,63398,11.38,72734.5,7.33,-23.13,-20.79,0,*72
1486469058.03,63399,11.44,72732.0,7.33,-23.65,-21.39,0,*77
1486469059.31,63400,11.38,72730.8,7.35,-23.33,-21.03,0,*7C
1486469060.55,63401,11.38,72728.8,7.35,-22.57,-20.25,0,*7B
1486469061.75,63402,11.38,72730.3,7.37,-23.39,-21.13,0,*77
1486469062.95,63403,11.38,72734.3,7.37,-23.39,-21.17,0,*72
1486469064.18,63404,11.38,72728.8,7.37,-23.99,-21.63,0,*7C
1486469065.42,63405,11.38,72728.5,7.37,-23.69,-21.33,0,*77
1486469066.63,63406,11.38,72734.3,7.37,-23.75,-21.39,0,*73
1486469067.83,63407,11.38,72728.8,7.37,-23.39,-21.13,0,*72
1486469069.11,63408,11.38,72728.0,7.39,-23.19,-20.99,0,*72
1486469070.36,63409,11.38,72732.3,7.39,-23.29,-21.09,0,*78
1486469071.58,63410,11.38,72730.0,7.41,-23.13,-20.79,0,*70
1486469072.81,63411,11.38,72730.8,7.41,-23.79,-21.53,0,*74
1486469074.03,63412,11.38,72730.0,7.43,-23.75,-21.43,0,*78
1486469075.26,63413,11.38,72732.3,7.43,-23.43,-21.09,0,*72
1486469076.51,63414,11.38,72730.5,7.43,-24.61,-22.31,0,*7A
1486469077.73,63415,11.38,72730.3,7.43,-23.59,-21.43,0,*71
1486469078.98,63416,11.38,72730.8,7.41,-23.49,-21.27,0,*73
1486469080.23,63417,11.38,72728.3,7.43,-23.23,-20.93,0,*72
1486469081.46,63418,11.38,72730.8,7.43,-22.97,-20.73,0,*7D
1486469082.72,63419,11.38,72728.5,7.43,-23.23,-20.89,0,*77
1486469083.99,63420,11.38,72730.5,7.43,-23.23,-21.03,0,*7E
1486469085.22,63421,11.38,72728.8,7.43,-22.63,-20.43,0,*7F
1486469086.51,63422,11.44,72734.3,7.49,-22.77,-20.53,0,*72
1486469087.71,63423,11.38,72728.3,7.51,-22.83,-20.63,0,*72
1486469088.95,63424,11.38,72732.8,7.53,-23.13,-20.93,0,*70
1486469090.15,63425,11.38,72730.0,7.51,-22.87,-20.69,0,*7A
1486469091.38,63426,11.38,72732.0,7.53,-22.83,-20.73,0,*74
1486469092.62,63427,11.38,72730.8,7.53,-24.31,-22.11,0,*7C
1486469093.85,63428,11.38,72732.3,7.51,-24.15,-21.93,0,*7E
1486469095.11,63429,11.38,72732.3,7.53,-23.65,-21.39,0,*7D
1486469096.34,63430,11.38,72730.5,7.53,-22.83,-20.59,0,*7B
1486469097.61,63431,11.38,72728.5,7.53,-22.77,-20.59,0,*71
1486469098.85,63432,11.38,72732.0,7.55,-22.17,-19.99,0,*74
1486469100.06,63433,11.44,72732.8,7.57,-22.07,-19.91,0,*7E
1486469101.32,63434,11.38,72732.0,7.57,-23.09,-20.99,0,*74
1486469102.55,63435,11.38,72728.0,7.57,-22.63,-20.39,0,*72
1486469103.76,63436,11.38,72730.8,7.59,-22.41,-20.25,0,*72
1486469104.96,63437,11.38,72732.3,7.59,-22.37,-20.09,0,*7C
1486469106.18,63438,11.38,72730.3,7.61,-22.07,-19.91,0,*70
1486469107.46,63439,11.38,72730.5,7.65,-21.83,-19.65,0,*71
1486469108.71,63440,11.38,72732.3,7.63,-22.21,-20.19,0,*73
1486469109.96,63441,11.38,72728.8,7.65,-22.47,-20.29,0,*77
1486469111.24,63442,11.38,72728.3,7.65,-22.21,-20.19,0,*77
1486469112.47,63443,11.38,72728.8,7.65,-22.67,-20.59,0,*70
1486469113.68,63444,11.44,72732.0,7.71,-22.41,-20.39,0,*70
1486469114.88,63445,11.38,72730.8,7.71,-22.67,-20.63,0,*7A
1486469116.09,63446,11.38,72730.3,7.71,-22.37,-20.39,0,*73
1486469117.32,63447,11.38,72730.3,7.73,-22.53,-20.39,0,*72
1486469118.57,63448,11.38,72728.0,7.73,-22.41,-20.35,0,*72
1486469119.82,63449,11.38,72732.0,7.73,-22.67,-20.49,0,*7C
1486469121.04,63450,11.38,72728.8,7.75,-22.83,-20.79,0,*7B
1486469122.29,63451,11.38,72728.8,7.73,-22.73,-20.63,0,*78
1486469123.53,63452,11.38,72728.8,7.73,-22.83,-20.79,0,*7F
1486469124.76,63453,11.38,72730.0,7.75,-22.77,-20.73,0,*79
1486469125.96,63454,11.38,72728.5,7.75,-22.87,-20.93,0,*7F
1486469127.21,63455,11.44,72734.8,7.73,-23.19,-21.13,0,*77
1486469128.41,63456,11.38,72728.0,7.75,-22.97,-20.93,0,*7C
1486469129.66,63457,11.38,72728.0,7.77,-22.87,-20.79,0,*7A
1486469130.89,63458,11.38,72734.5,7.79,-22.63,-20.53,0,*79
1486469132.17,63459,11.38,72728.0,7.77,-23.95,-21.87,0,*76
1486469133.42,63460,11.38,72730.0,7.77,-23.33,-21.39,0,*75
1486469134.66,63461,11.38,72730.3,7.79,-22.77,-20.89,0,*71
1486469135.89,63462,11.38,72730.5,7.77,-23.75,-21.73,0,*7B
1486469137.14,63463,11.38,72732.3,7.77,-24.15,-21.93,0,*75
1486469138.37,63464,11.38,72730.8,7.77,-23.13,-20.93,0,*72
1486469139.63,63465,11.38,72730.5,7.77,-23.99,-22.07,0,*7E
1486469140.86,63466,11.44,72734.8,7.77,-23.43,-21.39,0,*74
1486469142.08,63467,11.38,72730.0,7.75,-23.79,-21.83,0,*7F
1486469143.31,63468,11.44,72732.5,7.73,-24.35,-22.37,0,*75
1486469144.58,63469,11.44,72732.0,7.73,-23.69,-21.87,0,*72
1486469145.8,63470,11.44,72734.8,7.73,-24.35,-22.41,0,*7D
1486469147.02,63471,11.38,72728.8,7.75,-24.97,-23.19,0,*7E
1486469148.26,63472,11.44,72732.5,7.73,-24.15,-22.11,0,*78
1486469149.49,63473,11.38,72730.8,7.73,-24.51,-22.57,0,*7B
1486469150.71,63474,11.44,72732.5,7.73,-24.97,-22.87,0,*7B
1486469151.93,63475,11.38,72732.5,7.71,-23.69,-21.77,0,*72
1486469153.13,63476,11.44,72730.0,7.67,-25.23,-23.43,0,*7B
1486469154.34,63477,11.38,72728.3,7.67,-25.23,-23.29,0,*76
1486469155.59,63478,11.38,72732.0,7.65,-25.39,-23.49,0,*76
1486469156.81,63479,11.38,72728.0,7.63,-25.09,-23.19,0,*77
1486469158.06,63480,11.38,72728.8,7.63,-25.03,-23.19,0,*7B
1486469159.28,63481,11.44,72732.5,7.63,-25.23,-23.33,0,*70
1486469160.54,63482,11.44,72734.3,7.63,-24.71,-22.77,0,*74
1486469161.8,63483,11.44,72732.0,7.59,-23.85,-21.87,0,*7C
1486469163.07,63484,11.44,72734.0,7.61,-23.69,-21.87,0,*72
1486469164.32,63485,11.38,72732.5,7.61,-23.65,-21.63,0,*75
1486469165.55,63486,11.38,72730.0,7.59,-23.53,-21.63,0,*78
1486469166.8,63487,11.38,72730.3,7.63,-23.65,-21.83,0,*7B
1486469168.06,63488,11.44,72734.5,7.61,-24.83,-22.97,0,*7F
1486469169.28,63489,11.38,72728.5,7.59,-25.49,-23.53,0,*7B
1486469170.51,63490,11.38,72728.0,7.59,-24.51,-22.73,0,*78
1486469171.73,63491,11.38,72730.3,7.57,-25.23,-23.39,0,*7C
1486469172.98,63492,11.38,72728.0,7.57,-25.39,-23.53,0,*78
1486469174.27,63493,11.44,72732.3,7.57,-24.41,-22.47,0,*73
1486469175.47,63494,11.44,72730.0,7.55,-25.39,-23.59,0,*76
1486469176.67,63495,11.38,72728.0,7.55,-24.61,-22.67,0,*77
1486469177.92,63496,11.38,72728.5,7.53,-25.19,-23.33,0,*7C
1486469179.13,63497,11.38,72728.5,7.51,-24.47,-22.67,0,*75
1486469180.35,63498,11.44,72734.3,7.51,-25.23,-23.49,0,*74
1486469181.57,63499,11.44,72732.3,7.51,-25.35,-23.49,0,*72
1486469182.83,63500,11.44,72730.3,7.51,-23.99,-22.17,0,*79
1486469184.07,63501,11.38,72730.0,7.49,-24.57,-22.63,0,*77
1486469185.35,63502,11.44,72732.0,7.49,-24.71,-22.73,0,*71
1486469186.63,63503,11.44,72734.0,7.49,-24.67,-22.77,0,*73
1486469187.87,63504,11.44,72732.5,7.47,-25.29,-23.59,0,*7C
1486469189.13,63505,11.44,72732.5,7.47,-24.83,-23.09,0,*79
1486469190.39,63506,11.38,72730.0,7.47,-24.41,-22.63,0,*79
1486469191.66,63507,11.44,72734.8,7.47,-24.15,-22.31,0,*7E
1486469192.91,63508,11.44,72734.0,7.47,-23.89,-21.97,0,*7C
1486469194.16,63509,11.44,72732.0,7.43,-24.11,-22.27,0,*77
1486469195.38,63510,11.44,72732.5,7.47,-24.35,-22.57,0,*7A
1486469196.61,63511,11.44,72732.5,7.43,-24.57,-22.83,0,*72
1486469197.88,63512,11.44,72732.8,7.43,-23.65,-21.83,0,*74
1486469199.14,63513,11.44,72732.3,7.43,-24.25,-22.53,0,*78
1486469200.37,63514,11.44,72734.3,7.43,-24.35,-22.53,0,*7E
1486469201.59,63515,11.44,72734.5,7.41,-23.79,-21.97,0,*79
1486469202.85,63516,11.44,72732.3,7.41,-24.41,-22.47,0,*78
1486469204.07,63517,11.44,72734.3,7.41,-23.89,-21.97,0,*74
1486469205.3,63518,11.44,72728.3,7.41,-24.21,-22.67,0,*72
1486469206.54,63519,11.44,72736.5,7.41,-25.03,-23.29,0,*79
1486469207.76,63520,11.44,72730.8,7.41,-25.09,-23.49,0,*7F
1486469209.0,63521,11.44,72728.5,7.37,-25.29,-23.69,0,*7F
1486469210.2,63522,11.44,72730.5,7.37,-25.19,-23.39,0,*7A
1486469211.43,63523,11.44,72734.3,7.37,-25.65,-23.85,0,*77
1486469212.71,63524,11.44,72732.0,7.35,-25.55,-23.85,0,*71
1486469213.97,63525,11.44,72732.0,7.33,-25.03,-23.23,0,*79
1486469215.25,63526,11.44,72732.0,7.35,-24.83,-23.03,0,*77
1486469216.46,63527,11.44,72732.0,7.33,-24.35,-22.63,0,*7A
1486469217.68,63528,11.44,72728.5,7.31,-25.23,-23.43,0,*72
1486469218.93,63529,11.44,72728.3,7.31,-23.49,-21.63,0,*79
1486469220.19,63530,11.44,72734.0,7.33,-23.29,-21.67,0,*71
1486469221.39,63531,11.44,72738.0,7.33,-24.57,-22.83,0,*77
1486469222.6,63532,11.44,72732.3,7.33,-23.89,-22.11,0,*7B
1486469223.82,63533,11.44,72730.5,7.33,-24.11,-22.41,0,*79
1486469225.08,63534,11.44,72732.3,7.31,-24.41,-22.67,0,*7D
1486469226.32,63535,11.44,72730.3,7.31,-24.93,-23.19,0,*7B
1486469227.56,63536,11.44,72730.5,7.31,-25.09,-23.29,0,*79
1486469228.81,63537,11.44,72734.3,7.31,-24.47,-22.73,0,*7D
1486469230.05,63538,11.44,72730.8,7.29,-23.53,-21.77,0,*7E
1486469231.32,63539,11.44,72732.0,7.31,-23.65,-21.87,0,*7C
1486469232.57,63540,11.44,72734.5,7.31,-23.69,-22.03,0,*71
1486469233.8,63541,11.44,72732.8,7.29,-24.47,-22.73,0,*75
1486469235.05,63542,11.44,72732.3,7.31,-23.65,-22.03,0,*7F
1486469236.33,63543,11.44,72732.3,7.31,-23.95,-22.17,0,*74
1486469237.58,63544,11.44,72734.0,7.31,-24.11,-22.37,0,*7A
1486469238.83,63545,11.44,72732.3,7.31,-23.65,-21.93,0,*72
1486469240.08,63546,11.44,72734.3,7.29,-24.15,-22.31,0,*73
1486469241.29,63547,11.44,72728.0,7.29,-24.57,-22.87,0,*79
1486469242.51,63548,11.44,72734.3,7.29,-24.67,-22.87,0,*75
1486469243.74,63549,11.44,72736.5,7.29,-24.15,-22.37,0,*7A
1486469244.97,63550,11.44,72732.8,7.29,-24.83,-23.13,0,*7A
1486469246.2,63551,11.44,72728.8,7.25,-24.67,-22.87,0,*71
1486469247.43,63552,11.44,72732.3,7.25,-23.53,-21.93,0,*74
1486469248.68,63553,11.44,72730.0,7.27,-23.99,-22.27,0,*7D
1486469249.91,63554,11.44,72734.0,7.27,-23.75,-22.07,0,*7A
1486469251.16,63555,11.44,72734.5,7.27,-23.49,-21.93,0,*7A
1486469252.42,63556,11.44,72734.3,7.27,-24.05,-22.21,0,*7C
1486469253.7,63557,11.44,72734.3,7.27,-25.03,-23.23,0,*79
1486469254.92,63558,11.44,72730.0,7.25,-24.67,-22.87,0,*78
1486469256.15,63559,11.44,72730.8,7.25,-24.87,-23.09,0,*70
1486469257.37,63560,11.44,72730.0,7.25,-24.15,-22.41,0,*7C
1486469258.59,63561,11.44,72730.0,7.25,-23.85,-22.37,0,*72
1486469259.83,63562,11.44,72728.3,7.21,-24.51,-22.77,0,*7F
1486469261.04,63563,11.44,72732.8,7.21,-24.35,-22.63,0,*79
1486469262.26,63564,11.44,72734.8,7.19,-25.23,-23.43,0,*70
1486469263.52,63565,11.44,72734.0,7.19,-23.59,-21.87,0,*70
1486469264.74,63566,11.44,72732.3,7.19,-24.57,-22.83,0,*7D
1486469266.0,63567,11.44,72732.8,7.19,-24.77,-23.03,0,*77
1486469267.2,63568,11.44,72730.3,7.17,-24.77,-22.97,0,*7A
1486469268.45,63569,11.44,72732.3,7.19,-23.99,-22.03,0,*7F
1486469269.68,63570,11.44,72734.3,7.15,-23.89,-22.07,0,*7E
1486469270.92,63571,11.44,72732.5,7.17,-24.25,-22.63,0,*7E
1486469272.15,63572,11.44,72732.5,7.17,-24.41,-22.63,0,*7F
1486469273.38,63573,11.44,72730.5,7.15,-24.31,-22.41,0,*7B
1486469274.67,63574,11.44,72730.5,7.15,-24.15,-22.47,0,*7C
1486469275.92,63575,11.44,72734.3,7.15,-24.67,-22.93,0,*71
1486469277.19,63576,11.44,72730.3,7.15,-24.51,-22.77,0,*7D
1486469278.44,63577,11.44,72728.5,7.15,-24.97,-23.19,0,*7F
1486469279.64,63578,11.44,72732.5,7.13,-24.05,-22.27,0,*71
1486469280.89,63579,11.44,72734.0,7.13,-23.85,-22.21,0,*79
1486469282.13,63580,11.44,72734.3,7.13,-23.69,-21.97,0,*73
1486469283.37,63581,11.44,72732.3,7.13,-24.47,-22.77,0,*74
1486469284.62,63582,11.44,72730.0,7.13,-25.03,-23.33,0,*77
1486469285.89,63583,11.44,72734.3,7.11,-24.87,-23.23,0,*78
1486469287.14,63584,11.44,72730.0,7.11,-24.51,-22.73,0,*70
1486469288.4,63585,11.44,72730.5,7.11,-23.79,-22.17,0,*7E
1486469289.62,63586,11.44,72732.0,7.11,-23.13,-21.39,0,*7E
1486469290.84,63587,11.44,72732.5,7.11,-23.39,-21.47,0,*7E
1486469292.09,63588,11.44,72734.5,7.11,-23.89,-22.17,0,*7C
1486469293.37,63589,11.44,72734.8,7.11,-23.85,-22.17,0,*71
1486469294.62,63590,11.44,72732.8,7.11,-23.59,-21.83,0,*76
1486469295.87,63591,11.44,72728.8,7.11,-24.67,-22.97,0,*7B
1486469297.16,63592,11.44,72730.0,7.11,-23.95,-22.17,0,*7A
1486469298.41,63593,11.44,72734.0,7.11,-24.41,-22.63,0,*76
1486469299.66,63594,11.44,72734.0,7.11,-24.67,-22.93,0,*7A
1486469300.87,63595,11.44,72734.8,7.09,-24.47,-22.67,0,*7B
1486469302.12,63596,11.44,72730.5,7.09,-23.33,-21.53,0,*78
1486469303.35,63597,11.44,72728.5,7.09,-23.79,-22.17,0,*74